Location: Göttingen
(51.5413°N, 9.9158°E)
Time: 04:13:12
(UTC+02:00)

Envisat - Pass Details

Date: 29 January 2022
Orbit: 764 x 765 km, 98.2° (Epoch: 28 May)

Event Time Altitude Azimuth Distance (km) Brightness Sun altitude
Rises 06:44:51 0° 7° (N) 3,244 6.2 -12.2°
Reaches altitude 10° 06:47:30 10° 354° (N) 2,313 5.3 -11.8°
Maximum altitude 06:51:35 25° 301° (WNW) 1,511 4.0 -11.2°
Drops below altitude 10° 06:55:39 10° 247° (WSW) 2,302 5.0 -10.6°
Sets 06:58:17 0° 235° (SW) 3,224 5.9 -10.2°
